Weather History for OTBD - January, 2013

Change the Weather History Date:

Saturday, January 12, 2013

  Actual Average Record
Temperature  
Mean Temperature 60 °F -  
Max Temperature 67 °F 72 °F - ()
Min Temperature 54 °F 56 °F - ()
Degree Days  
Heating Degree Days 4    
Growing Degree Days 10 (Base 50)    
Moisture  
Dew Point 42 °F    
Average Humidity 50    
Maximum Humidity 63    
Minimum Humidity 28    
Precipitation  
Precipitation 0.00 in 0.02 in - ()
Sea Level Pressure  
Sea Level Pressure 30.28 in    
Wind  
Wind Speed 12 mph ()    
Max Wind Speed 21 mph    
Max Gust Speed 26 mph    
Visibility 5.1 miles    
Events      
T = Trace of Precipitation, MM = Missing Value Source: Averaged Metar Reports

Daily Weather History Graph

Daily Weather History Graph

Search for Another Location

Airport or City:

Trip Planner

Search our weather history database for the weather conditions in past years. The results will help you decide how hot, cold, wet, or windy it might be!

Date:

Astronomy

Jan. 12, 2013 Rise Set
Actual Time 6:21 AM AST 5:03 PM AST
Civil Twilight 5:56 AM AST 5:27 PM AST
Nautical Twilight 5:28 AM AST 5:56 PM AST
Astronomical Twilight 5:00 AM AST 6:23 PM AST
Moon 6:30 AM AST (1/12) 5:54 PM AST (1/12)
Length of Visible Light 11h 31m
Length of Day
10h 42m
New Moon, 0% of the Moon is Illuminated
Jan 12
New Moon
Jan 19
First Quarter
Jan 27
Full
Feb 3
Last Quarter
Feb 10
New

Hourly Weather History & Observations

Time (AST) Temp. Dew Point Humidity Pressure Visibility Wind Dir Wind Speed Gust Speed Precip Events Conditions
12:00 AM 57.2 °F 39.2 °F 51% 30.30 in - NW 12.7 mph - N/A   Clear
1:00 AM 57.2 °F 39.2 °F 51% 30.27 in - NW 10.4 mph - N/A   Clear
2:00 AM 57.2 °F 39.2 °F 51% 30.27 in - NW 13.8 mph - N/A   Clear
2:30 AM 57.2 °F 41.0 °F 55% 30.27 in - NW 11.5 mph - N/A   Clear
3:00 AM 57 °F 40 °F 42% 30.27 in 7 mi NW 11.5 mph - -   Scattered Clouds
3:00 AM 57.2 °F 41.0 °F 55% 30.24 in - NW 11.5 mph - N/A   Clear
4:00 AM 57.2 °F 41.0 °F 55% 30.27 in - NW 13.8 mph - N/A   Clear
5:00 AM 55.4 °F 41.0 °F 58% 30.27 in - WNW 9.2 mph - N/A   Clear
5:30 AM 55.4 °F 42.8 °F 63% 30.27 in - WNW 11.5 mph - N/A   Clear
6:00 AM 55.4 °F 41.0 °F 58% 30.27 in - WNW 13.8 mph - N/A   Clear
6:30 AM 55.4 °F 41.0 °F 58% 30.30 in 5.6 mi WNW 12.7 mph - N/A   Unknown
7:00 AM 55.4 °F 41.0 °F 58% 30.30 in 5.0 mi WNW 11.5 mph - N/A   Unknown
7:30 AM 55.4 °F 41.0 °F 58% 30.33 in 5.0 mi WNW 10.4 mph - N/A   Unknown
8:00 AM 57.2 °F 42.8 °F 59% 30.33 in 5.0 mi WNW 12.7 mph - N/A   Unknown
8:30 AM 57.2 °F 42.8 °F 59% 30.33 in 4.3 mi WNW 11.5 mph - N/A   Unknown
9:00 AM 58 °F 42 °F 45% 30.36 in 4 mi WNW 11.5 mph - -   Widespread Dust
9:00 AM 59.0 °F 42.8 °F 55% 30.36 in 4.3 mi WNW 11.5 mph - N/A   Unknown
9:30 AM 59.0 °F 42.8 °F 55% 30.33 in 4.3 mi NW 12.7 mph 26.5 mph N/A   Unknown
10:00 AM 60.8 °F 41.0 °F 48% 30.33 in 4.3 mi NW 15.0 mph - N/A   Unknown
10:30 AM 62.6 °F 42.8 °F 48% 30.30 in 4.3 mi NW 15.0 mph - N/A   Unknown
11:00 AM 64.4 °F 42.8 °F 45% 30.30 in 4.3 mi NNW 17.3 mph - N/A   Unknown
11:30 AM 64.4 °F 42.8 °F 45% 30.27 in 5.0 mi NW 15.0 mph - N/A   Unknown
12:00 PM 66.2 °F 41.0 °F 40% 30.27 in 5.6 mi NNW 18.4 mph - N/A   Unknown
12:30 PM 66.2 °F 41.0 °F 40% 30.27 in - NNW 20.7 mph - N/A   Clear
1:00 PM 66.2 °F 41.0 °F 40% 30.24 in - NNW 18.4 mph - N/A   Clear
1:30 PM 66.2 °F 42.8 °F 43% 30.24 in - NNW 16.1 mph - N/A   Clear
2:00 PM 68.0 °F 39.2 °F 35% 30.27 in - NNW 19.6 mph - N/A   Clear
2:30 PM 66.2 °F 42.8 °F 43% 30.24 in - NW 18.4 mph - N/A   Clear
3:00 PM 65 °F 40 °F 28% 30.27 in 7 mi NNW 18.4 mph - -  
3:00 PM 66.2 °F 41.0 °F 40% 30.24 in - NNW 18.4 mph - N/A   Clear
3:30 PM 64.4 °F 42.8 °F 45% 30.27 in - NW 17.3 mph - N/A   Clear
4:30 PM 64.4 °F 41.0 °F 42% 30.27 in - NNW 17.3 mph - N/A   Clear
5:00 PM 62.6 °F 42.8 °F 48% 30.27 in - NNW 12.7 mph - N/A   Clear
5:30 PM 62.6 °F 42.8 °F 48% 30.27 in - NW 12.7 mph - N/A   Clear
6:00 PM 60.8 °F 44.6 °F 55% 30.27 in - NNW 17.3 mph - N/A   Clear
6:30 PM 60.8 °F 42.8 °F 52% 30.27 in - NNW 15.0 mph - N/A   Clear
7:00 PM 60.8 °F 42.8 °F 52% 30.27 in - NNW 10.4 mph - N/A   Clear
7:30 PM 60.8 °F 44.6 °F 55% 30.27 in - NW 10.4 mph - N/A   Clear
8:00 PM 60.8 °F 44.6 °F 55% 30.27 in - NW 9.2 mph - N/A   Clear
9:00 PM 60 °F 43 °F 43% 30.30 in 6 mi NW 8.1 mph - -  
9:00 PM 59.0 °F 42.8 °F 55% 30.30 in - NW 8.1 mph - N/A   Clear
9:30 PM 59.0 °F 42.8 °F 55% 30.27 in - NW 9.2 mph - N/A   Clear
10:00 PM 59.0 °F 42.8 °F 55% 30.27 in - NW 9.2 mph - N/A   Clear
10:30 PM 59.0 °F 42.8 °F 55% 30.27 in - NW 9.2 mph - N/A   Clear
11:00 PM 59.0 °F 44.6 °F 59% 30.27 in - NW 9.2 mph - N/A   Clear
11:30 PM 59.0 °F 44.6 °F 59% 30.27 in - NW 10.4 mph - N/A   Clear